Showing default

IRIDE-MS1-EAG2-15, 68462

Orbit data source: Space-Track

IRIDE-MS1-EAG2-15, 68462 is an Italian payload satellite in SSO that was launched on Mon, 30 Mar 2026 UTC via an FALCON 9 launch vehicle from the Air Force Western Test Range (AFWTR). Payload-class satellites include a variety of spacecraft equipped with specific instruments for various scientific and technological missions. These include communications satellites like Starlink; space stations such as the ISS; scientific satellites like the Hubble; Earth observation satellites from companies like Planet Labs, Umbra, and HawkEye 360; GPS; miniature CubeSats for education and research; and military/defense satellites.

Loading next visibility...
Identifier
68462, 2026-067AY
Orbit
SSO
Country
Flag of ITIT
Related business
Manufacturer
OHB-I
Mission
Operational Commercial Technology
Bus & Motor
EAGLET, Unknown motor
Mass
25 kg wet, 25 kg dry
Launch date (UTC)
2026-03-30 (5 months ago)
Launch vehicle
FALCON 9
Launch site
Air Force Western Test Range (AFWTR)
Object type
Payload
Rocket body
Debris
Shape & HBR
Box + 2 Pan, 1.0 m
Radar Cross Section
0.368 m², Medium (>0.1 m² and < 1m²)

Expand to show TLE details & history
Last TLE update: 7 hours ago

TLE from 7 hours ago
0 IRIDE-MS1-EAG2-15
1 68462U 26067AY  26236.57216707  .00006895  00000-0  32844-3 0  9993
2 68462  97.4602 194.1958 0004224 124.3852 235.7783 15.19439023 22321
Epoch: 2026-08-24T13:43Z
TLE epoch observation values (Epoch: 2026-08-24T13:43:55.234Z)
Latitude
-0.00001°
Longitude
15.36371°
Altitude
512.26 km
Speed
7.607 km/s
True Right ascension
12h 56m 46s
True Declination
0° 00' 00"
Sunlit
Object was in daylight at epoch
Visualization orbit readout
Latitude
Unknown
Longitude
Unknown
Altitude
Unknown
Speed
Unknown
Apparent Right ascension
Unknown
Apparent Declination
Unknown
Sunlit
N/A
Visualization observer readout
Local Sidereal Time
12:10:35
Azimuth
Unknown
Elevation
Unknown
Doppler factor
Unknown
Orbital elements
Apogee altitude
507.411 km
Perigee altitude
501.597 km
Semi-major axis
6,882.641 km
Eccentricity
0.00042
Inclination
97.4602°
RAAN
194.1958°
Arg. of periapsis
124.3852°
True anomaly
235.73829°
Mean anomaly
235.7783°
Eccentric anomaly
235.75829°
Mean motion
3.80111 °/min
Orbital period
94.71 mins
BSTAR
0.00032844
Loading maneuver chart data...
Computing Atmospheric mass density...
Loading historical data...
Loading historical data...
Loading historical data...
Loading historical data...
Loading historical data...
Loading historical data...
Loading historical data...

Documentation

Showing up to 5 results
|